Regional Weather Roundup
Issued by NWS Mobile, AL

Home | Current Version | Previous Version | Text Only | Print | Product List | Glossary On
Versions: 1 2 3 4 5 6 7 8 9 10 11 12 13 14 15 16 17 18 19 20 21 22 23 24 25 26 27
000
ASUS44 KMOB 230710
RWRMOB
REGIONAL WEATHER ROUNDUP
NATIONAL WEATHER SERVICE MOBILE AL
200 AM CDT WED APR 23 2014

NOTE: "FAIR" INDICATES FEW OR NO CLOUDS BELOW 12,000 FEET WITH NO
      SIGNIFICANT WEATHER AND/OR OBSTRUCTIONS TO VISIBILITY.

  * THESE STATIONS ARE PART OF THE UNIVERSITY OF SOUTH ALABAMA
    MESONET AND ARE NOT UNDER NWS OR FAA QUALITY CONTROL.

ALZ061>064-230800-
COASTAL ALABAMA

CITY           SKY/WX    TMP DP  RH WIND       PRES   REMARKS
MOBILE REG APT CLEAR     62  62 100 N3        29.91F
BROOKLEY FIELD CLEAR     62  61  96 NW5       29.92S
USA CAMPUS*    NOT AVBL
DOG RIVER*     NOT AVBL


CITY           SKY/WX    TMP DP  RH WIND       PRES   REMARKS
MOUNT VERNON*  NOT AVBL
SARALAND*      NOT AVBL
BAY MINETTE*   NOT AVBL
LOXLEY*        NOT AVBL
ROBERTSDALE*   NOT AVBL
FAIRHOPE*      NOT AVBL
ELBERTA*       NOT AVBL
FOLEY*         NOT AVBL
GRAND BAY*       N/A     63  63 100 CALM      29.89F
DAUPHIN ISLND* NOT AVBL
BON SCOUR NWR* NOT AVBL
GULF SHORES    CLOUDY    66  65  98 CALM      29.90S FOG

$$

ALZ051>060-230800-
INTERIOR SOUTHWEST AND SOUTH CENTRAL ALABAMA

CITY           SKY/WX    TMP DP  RH WIND       PRES   REMARKS
GREENVILLE     CLEAR     59  56  89 CALM      29.89S
EVERGREEN      FOG       60  58  92 CALM      29.91F VSB 3/4
CASTLEBERRY*   NOT AVBL
ATMORE*        NOT AVBL
DIXIE*         NOT AVBL
ANDALUSIA/OPP  CLEAR     66  60  81 CALM      29.89F HAZE
ANDALUSIA*     NOT AVBL
FLORALA APT    CLEAR     61  58  90 CALM      29.90F
FLORALA*         N/A     57  57 100 CALM      29.87F

$$

FLZ001>006-230800-
WESTERN FLORIDA PANHANDLE

CITY           SKY/WX    TMP DP  RH WIND       PRES   REMARKS
PENSACOLA      CLEAR     65  62  90 NW5       29.89F FOG
NAS PENSACOLA  MOCLDY    64  64 100 NW3       29.89F FOG
MILTON         FOG       62  60  93 NW5       29.90S VSB 1/2
WHTNG S FIELD  FOG       62  59  90 NW5       29.90S VSB 1/2


CITY           SKY/WX    TMP DP  RH WIND       PRES   REMARKS
WALNUT HILL*   NOT AVBL
JAY*           NOT AVBL
DUKE FIELD     CLEAR     61  61 100 NW1       29.89S FOG
CRESTVIEW      CLEAR     61  59  93 CALM      29.90F FOG
VALPARAISO     NOT AVBL
DESTIN         CLEAR     68  64  87 CALM      29.88F

$$

MSZ076-079-230800-
INTERIOR SOUTHEAST MISSISSIPPI

CITY           SKY/WX    TMP DP  RH WIND       PRES   REMARKS
LEAKESVILLE*     N/A     59  57  94 CALM      29.92S
AGRICOLA*      NOT AVBL

$$

MARINE OBSERVATIONS

STATION/POSITION TIME  TEMP    WIND        PRES    WAVE
                       AIR SEA DIR/SP/G            HT/PER
                 (UTC) (F)     (DEG/KT/KT) (MB)    (FT/S)
PASCAGOULA       0700   66     360/  4/  5 1012.3S
PETIT BOIS ISLND 0700   68      10/  7/  8 1012.8S
GRAND BAY        0600   67     360/  6     1013.0S
KATRINA CUT      0600   69     330/  3     1013.5S
CEDAR POINT      0500   68     310/  4     1012.5S
E DAUPHIN ISLAND 0700   68     340/  5/  6 1012.3F
MIDDLE BAY LIGHT 0600   67     350/  8     1012.2F
USCG MOBILE BAY  0700   66 69  340/  3/  4 1011.6S
STATE DOCKS      0700   65 66              1012.4S
MEAHER PARK      0600   65     350/  3     1012.9F
WEEKS BAY        0600   56                   N/A
FORT MORGAN      0700   69     350/  8/  8 1012.2S
12 S ORANGE BCH  0700   68 68  310/  8/ 10 1012.5F   1/ 3
PENSACOLA BAY    0700   67 69  320/  3/  6 1012.5F
64 S DAUPHIN ISL 0647   69 69  250/ 12/ 14 1012.8F
67 S FORT MORGAN 0600   68                 1012.9F

$$

SELECTED LOCATIONS ACROSS THE REGION

CITY           SKY/WX    TMP DP  RH WIND       PRES   REMARKS
NEW ORLEANS    CLEAR     65  63  93 CALM      29.93S
GULFPORT       CLEAR     65  61  87 CALM      29.91S FOG
PASCAGOULA AP  CLEAR     61  61 100 CALM      29.91S FOG
PASCAGOULA*      N/A     64  64 100 CALM      29.91S
HATTIESBURG    CLEAR     58  57  97 CALM      29.93S FOG
LAUREL         CLEAR     63  59  88 NW6       29.93S
MERIDIAN       FOG       56  55  97 CALM      29.92S VSB 1/4
JACKSON        FOG       57  56  96 CALM      29.94S VSB 1/4
MONTGOMERY     CLEAR     59  57  93 CALM      29.89F
TROY           FOG       57  56  96 CALM      29.90S VSB 1/4
KINSTON*       NOT AVBL
GENEVA*          N/A     55  54  94 CALM      29.91F
ASHFORD*       NOT AVBL
DOTHAN         CLEAR     62  60  93 CALM      29.92F
PANAMA CITY    CLOUDY    66  63  90 W3        29.88F FOG

$$




USA.gov is the U.S. government's official web portal to all federal, state and local government web resources and services.